VK6ADF Weather Reports


time (UTC)temp
C
wind
direction
speed
KPH
gust
KPH
rain 1hr
cm
rain 24hr
cm
rain mn
cm
humidity
%
barometer
mb
20260505193113 14 295 4.8 8.0 0.00 0.00 0.00 59 1023.7
20260505190030 15 349 4.8 12.9 0.00 0.00 0.00 58 1023.6
20260505184532 15 149 6.4 12.9 0.00 0.00 0.00 58 1023.6
20260505183543 15 319 4.8 9.7 0.00 0.00 0.00 58 1023.5
20260505181648 15 130 4.8 14.5 0.00 0.00 0.00 57 1023.7
20260505180454 15 333 6.4 16.1 0.00 0.00 0.00 57 1023.5
20260505173028 13 158 0.0 1.6 0.00 0.00 0.00 60 1023.7
20260505171528 14 0 0.0 1.6 0.00 0.00 0.00 59 1023.7
20260505170030 14 158 0.0 3.2 0.00 0.00 0.00 59 1023.7
20260505164545 13 161 1.6 6.4 0.00 0.00 0.00 61 1023.7
20260505163028 13 162 0.0 6.4 0.00 0.00 0.00 63 1023.6
20260505161535 12 163 0.0 0.0 0.00 0.00 0.00 68 1023.7
20260505153029 11 0 0.0 0.0 0.00 0.00 0.00 72 1023.7
20260505151531 12 0 0.0 0.0 0.00 0.00 0.00 72 1023.7
20260505124536 16 0 0.0 0.0 0.00 0.00 0.00 72 1023.5
20260505123032 16 0 0.0 0.0 0.00 0.00 0.00 72 1023.3
20260505121533 16 0 0.0 0.0 0.00 0.00 0.00 71 1023.2
20260505120103 16 0 0.0 0.0 0.00 0.00 0.00 70 1023.0
20260505114534 17 0 0.0 0.0 0.00 0.00 0.00 70 1022.9
20260505113027 17 0 0.0 0.0 0.00 0.00 0.00 69 1022.8
20260505111529 17 0 0.0 0.0 0.00 0.00 0.00 69 1022.7
20260505101529 20 153 1.6 6.4 0.00 0.00 0.00 71 1022.0
20260505041719 27 336 4.8 12.9 0.00 0.00 0.00 34 1022.7
20260505040410 26 318 6.4 17.7 0.00 0.00 0.00 35 1022.9
20260505034532 26 339 9.7 14.5 0.00 0.00 0.00 36 1023.1
20260505033027 25 290 4.8 20.9 0.00 0.00 0.00 38 1023.1
20260505031530 25 228 8.0 16.1 0.00 0.00 0.00 37 1023.2
20260505030030 25 169 6.4 16.1 0.00 0.00 0.00 39 1023.4
20260505024530 24 304 6.4 20.9 0.00 0.00 0.00 41 1023.6
20260505023029 23 331 9.7 17.7 0.00 0.00 0.00 43 1023.5
20260505021535 23 319 11.3 22.5 0.00 0.00 0.00 45 1023.7
20260505020250 22 332 8.0 16.1 0.00 0.00 0.00 47 1024.1
20260505014722 21 315 8.0 16.1 0.00 0.00 0.00 50 1024.2
20260505014539 21 315 8.0 16.1 0.00 0.00 0.00 50 1024.2
20260505013029 20 328 6.4 16.1 0.00 0.00 0.00 52 1024.3
20260505011552 20 303 8.0 16.1 0.00 0.00 0.00 53 1024.3
20260505010105 18 257 6.4 17.7 0.00 0.00 0.00 56 1024.3
20260505004528 17 338 8.0 17.7 0.00 0.00 0.00 59 1024.5
20260505003128 16 339 6.4 11.3 0.00 0.00 0.00 62 1024.2
20260505003038 16 339 6.4 11.3 0.00 0.00 0.00 62 1024.2
20260505001529 15 327 6.4 12.9 0.00 0.00 0.00 65 1024.1
20260505000037 13 329 6.4 12.9 0.00 0.00 0.00 68 1023.9
20260504234531 13 314 6.4 9.7 0.00 0.00 0.00 70 1023.8
20260504231529 12 208 4.8 11.3 0.00 0.00 0.00 71 1023.7
20260504230040 12 333 4.8 8.0 0.00 0.00 0.00 72 1023.7
20260504224533 12 207 6.4 8.0 0.00 0.00 0.00 72 1023.5
20260504223031 12 323 3.2 8.0 0.00 0.00 0.00 71 1023.3
20260504221528 12 331 6.4 12.9 0.00 0.00 0.00 71 1023.2
20260504220028 12 345 4.8 8.0 0.00 0.00 0.00 71 1023.1
20260504214529 12 318 3.2 6.4 0.00 0.00 0.00 71 1023.2
20260504213033 12 24 3.2 8.0 0.00 0.00 0.00 71 1023.1
20260504211530 12 192 1.6 6.4 0.00 0.00 0.00 72 1023.0
20260504210028 12 172 1.6 3.2 0.00 0.00 0.00 71 1023.0
20260504204624 12 172 0.0 1.6 0.00 0.00 0.00 71 1023.0
20260504201530 13 172 0.0 1.6 0.00 0.00 0.00 69 1022.8
20260504200030 13 172 1.6 6.4 0.00 0.00 0.00 69 1022.9